contact:dominique.lefevre@mio.osupytheas.fr, maurice.libes@osupytheas.fr, didier.mallarino@osupytheas.fr
Project:EMSO http://www.emso-fr.org/EMSO-France
Depth: 2436.0 m
Title:EMSO Ligure Ouest : Data MII capteur CSTAR
DateTime,Latitude,Longitude,Instrument_Serial,Reference_Counts,Signal_Counts,Corrected_Signal_raw_counts,Calculated_Beam_c_inverse_meters,Internal_thermistor_counts
DateTime,Latitude,Longitude,Instrument_Serial,Reference_Counts,Signal_Counts,Corrected_Signal_raw_counts,Calculated_Beam_c_inverse_meters,Internal_thermistor_counts
2019-10-29T00:00:52,42.805,6.029,CST-1368DR,7491,10498,15332,0.073,551
2019-10-29T00:03:53,42.805,6.029,CST-1368DR,7491,10497,15331,0.074,551
2019-10-29T00:06:55,42.805,6.029,CST-1368DR,7491,10495,15328,0.074,551
2019-10-29T00:09:57,42.805,6.029,CST-1368DR,7491,10497,15330,0.074,551
2019-10-29T00:12:58,42.805,6.029,CST-1368DR,7491,10497,15331,0.074,551
2019-10-29T00:16:00,42.805,6.029,CST-1368DR,7491,10496,15329,0.074,551
2019-10-29T00:19:01,42.805,6.029,CST-1368DR,7491,10496,15329,0.074,551
2019-10-29T00:22:03,42.805,6.029,CST-1368DR,7491,10496,15330,0.074,551
2019-10-29T00:25:05,42.805,6.029,CST-1368DR,7491,10498,15332,0.073,551
2019-10-29T00:28:06,42.805,6.029,CST-1368DR,7491,10492,15323,0.076,551
2019-10-29T00:31:08,42.805,6.029,CST-1368DR,7491,10495,15329,0.074,551
2019-10-29T00:34:10,42.805,6.029,CST-1368DR,7491,10497,15330,0.074,551
2019-10-29T00:37:11,42.805,6.029,CST-1368DR,7491,10497,15331,0.074,551
2019-10-29T00:40:13,42.805,6.029,CST-1368DR,7491,10497,15331,0.074,550
2019-10-29T00:43:15,42.805,6.029,CST-1368DR,7491,10495,15327,0.075,551
2019-10-29T00:46:16,42.805,6.029,CST-1368DR,7491,10497,15330,0.074,551
2019-10-29T00:49:18,42.805,6.029,CST-1368DR,7491,10497,15330,0.074,551
2019-10-29T00:52:20,42.805,6.029,CST-1368DR,7491,10497,15331,0.074,551
2019-10-29T00:55:21,42.805,6.029,CST-1368DR,7491,10497,15330,0.074,551
2019-10-29T00:58:23,42.805,6.029,CST-1368DR,7491,10498,15332,0.073,551
2019-10-29T01:01:25,42.805,6.029,CST-1368DR,7491,10496,15330,0.074,551
2019-10-29T01:04:26,42.805,6.029,CST-1368DR,7491,10493,15326,0.075,551
2019-10-29T01:07:28,42.805,6.029,CST-1368DR,7491,10495,15328,0.074,551
2019-10-29T01:10:29,42.805,6.029,CST-1368DR,7491,10496,15330,0.074,551
2019-10-29T01:13:31,42.805,6.029,CST-1368DR,7491,10497,15331,0.074,550
2019-10-29T01:16:33,42.805,6.029,CST-1368DR,7491,10497,15331,0.074,551
2019-10-29T01:19:34,42.805,6.029,CST-1368DR,7491,10497,15331,0.074,551
2019-10-29T01:22:36,42.805,6.029,CST-1368DR,7491,10493,15326,0.075,551
2019-10-29T01:25:38,42.805,6.029,CST-1368DR,7491,10497,15331,0.074,551
2019-10-29T01:28:39,42.805,6.029,CST-1368DR,7491,10495,15329,0.074,551
2019-10-29T01:31:41,42.805,6.029,CST-1368DR,7491,10497,15331,0.074,550
2019-10-29T01:34:43,42.805,6.029,CST-1368DR,7491,10496,15330,0.074,551
2019-10-29T01:37:45,42.805,6.029,CST-1368DR,7491,10496,15330,0.074,551
2019-10-29T01:40:46,42.805,6.029,CST-1368DR,7491,10495,15329,0.074,551
2019-10-29T01:43:48,42.805,6.029,CST-1368DR,7491,10495,15327,0.075,551
2019-10-29T01:46:50,42.805,6.029,CST-1368DR,7491,10494,15327,0.075,551
2019-10-29T01:49:51,42.805,6.029,CST-1368DR,7491,10495,15329,0.074,551
2019-10-29T01:52:53,42.805,6.029,CST-1368DR,7491,10496,15330,0.074,551
2019-10-29T01:55:54,42.805,6.029,CST-1368DR,7491,10495,15329,0.074,551
2019-10-29T01:58:56,42.805,6.029,CST-1368DR,7491,10496,15330,0.074,551
2019-10-29T02:01:58,42.805,6.029,CST-1368DR,7491,10497,15331,0.074,551
2019-10-29T02:05:00,42.805,6.029,CST-1368DR,7491,10497,15330,0.074,551
2019-10-29T02:08:01,42.805,6.029,CST-1368DR,7491,10496,15330,0.074,551
2019-10-29T02:11:03,42.805,6.029,CST-1368DR,7491,10495,15329,0.074,551
2019-10-29T02:14:04,42.805,6.029,CST-1368DR,7491,10497,15331,0.074,551
2019-10-29T02:17:06,42.805,6.029,CST-1368DR,7491,10496,15330,0.074,551
2019-10-29T02:20:08,42.805,6.029,CST-1368DR,7491,10496,15329,0.074,551
2019-10-29T02:23:10,42.805,6.029,CST-1368DR,7491,10493,15325,0.075,551
2019-10-29T02:26:11,42.805,6.029,CST-1368DR,7491,10497,15330,0.074,551
2019-10-29T02:29:13,42.805,6.029,CST-1368DR,7491,10494,15327,0.075,551
2019-10-29T02:32:15,42.805,6.029,CST-1368DR,7491,10497,15330,0.074,551
2019-10-29T02:35:16,42.805,6.029,CST-1368DR,7491,10497,15330,0.074,551
2019-10-29T02:38:18,42.805,6.029,CST-1368DR,7491,10496,15329,0.074,551
2019-10-29T02:41:20,42.805,6.029,CST-1368DR,7491,10496,15329,0.074,551
2019-10-29T02:44:22,42.805,6.029,CST-1368DR,7491,10496,15330,0.074,551
2019-10-29T02:47:23,42.805,6.029,CST-1368DR,7491,10496,15329,0.074,551
2019-10-29T02:50:25,42.805,6.029,CST-1368DR,7490,10496,15332,0.073,551
2019-10-29T02:53:27,42.805,6.029,CST-1368DR,7490,10496,15331,0.074,551
2019-10-29T02:56:28,42.805,6.029,CST-1368DR,7490,10496,15332,0.073,551
2019-10-29T02:59:30,42.805,6.029,CST-1368DR,7490,10496,15331,0.074,551
2019-10-29T03:02:32,42.805,6.029,CST-1368DR,7490,10496,15331,0.074,551
2019-10-29T03:05:33,42.805,6.029,CST-1368DR,7490,10495,15330,0.074,551
2019-10-29T03:08:35,42.805,6.029,CST-1368DR,7490,10495,15329,0.074,551
2019-10-29T03:11:37,42.805,6.029,CST-1368DR,7490,10495,15330,0.074,551
2019-10-29T03:14:39,42.805,6.029,CST-1368DR,7490,10496,15332,0.073,551
2019-10-29T03:17:41,42.805,6.029,CST-1368DR,7490,10495,15330,0.074,551
2019-10-29T03:20:43,42.805,6.029,CST-1368DR,7490,10495,15330,0.074,551
2019-10-29T03:23:44,42.805,6.029,CST-1368DR,7490,10495,15330,0.074,551
2019-10-29T03:26:46,42.805,6.029,CST-1368DR,7490,10495,15330,0.074,551
2019-10-29T03:29:48,42.805,6.029,CST-1368DR,7490,10495,15330,0.074,551
2019-10-29T03:32:49,42.805,6.029,CST-1368DR,7490,10496,15331,0.074,551
2019-10-29T03:35:51,42.805,6.029,CST-1368DR,7490,10497,15332,0.073,551
2019-10-29T03:38:53,42.805,6.029,CST-1368DR,7490,10495,15330,0.074,551
2019-10-29T03:41:54,42.805,6.029,CST-1368DR,7490,10496,15332,0.073,551
2019-10-29T03:44:56,42.805,6.029,CST-1368DR,7490,10495,15329,0.074,551
2019-10-29T03:47:58,42.805,6.029,CST-1368DR,7490,10495,15329,0.074,551
2019-10-29T03:50:59,42.805,6.029,CST-1368DR,7490,10494,15328,0.074,550
2019-10-29T03:54:01,42.805,6.029,CST-1368DR,7490,10494,15328,0.074,551
2019-10-29T03:57:02,42.805,6.029,CST-1368DR,7490,10496,15331,0.074,551
2019-10-29T04:00:04,42.805,6.029,CST-1368DR,7490,10488,15320,0.077,551
2019-10-29T04:03:06,42.805,6.029,CST-1368DR,7490,10496,15331,0.074,550
2019-10-29T04:06:07,42.805,6.029,CST-1368DR,7490,10496,15332,0.073,550
2019-10-29T04:09:09,42.805,6.029,CST-1368DR,7490,10496,15332,0.073,551
2019-10-29T04:12:11,42.805,6.029,CST-1368DR,7490,10495,15330,0.074,551
2019-10-29T04:15:12,42.805,6.029,CST-1368DR,7490,10495,15329,0.074,551
2019-10-29T04:18:14,42.805,6.029,CST-1368DR,7490,10495,15329,0.074,550
2019-10-29T04:21:16,42.805,6.029,CST-1368DR,7490,10496,15332,0.073,551
2019-10-29T04:24:17,42.805,6.029,CST-1368DR,7490,10495,15330,0.074,551
2019-10-29T04:27:19,42.805,6.029,CST-1368DR,7490,10496,15331,0.074,551
2019-10-29T04:30:21,42.805,6.029,CST-1368DR,7490,10495,15330,0.074,551
2019-10-29T04:33:22,42.805,6.029,CST-1368DR,7490,10496,15332,0.073,551
2019-10-29T04:36:24,42.805,6.029,CST-1368DR,7490,10493,15327,0.075,551
2019-10-29T04:39:26,42.805,6.029,CST-1368DR,7490,10495,15330,0.074,551
2019-10-29T04:42:27,42.805,6.029,CST-1368DR,7490,10495,15330,0.074,551
2019-10-29T04:45:29,42.805,6.029,CST-1368DR,7490,10495,15330,0.074,551
2019-10-29T04:48:30,42.805,6.029,CST-1368DR,7490,10494,15329,0.074,551
2019-10-29T04:51:32,42.805,6.029,CST-1368DR,7490,10491,15324,0.076,551
2019-10-29T04:54:34,42.805,6.029,CST-1368DR,7490,10495,15329,0.074,551
2019-10-29T04:57:36,42.805,6.029,CST-1368DR,7490,10495,15329,0.074,551
2019-10-29T05:00:37,42.805,6.029,CST-1368DR,7490,10495,15330,0.074,551
2019-10-29T05:03:39,42.805,6.029,CST-1368DR,7490,10494,15329,0.074,551
2019-10-29T05:06:41,42.805,6.029,CST-1368DR,7490,10495,15330,0.074,550
2019-10-29T05:09:42,42.805,6.029,CST-1368DR,7490,10495,15330,0.074,551
2019-10-29T05:12:44,42.805,6.029,CST-1368DR,7490,10494,15329,0.074,551
2019-10-29T05:15:46,42.805,6.029,CST-1368DR,7490,10494,15329,0.074,551
2019-10-29T05:18:47,42.805,6.029,CST-1368DR,7490,10493,15327,0.075,551
2019-10-29T05:21:49,42.805,6.029,CST-1368DR,7490,10495,15330,0.074,551
2019-10-29T05:24:50,42.805,6.029,CST-1368DR,7490,10495,15329,0.074,551
2019-10-29T05:27:52,42.805,6.029,CST-1368DR,7490,10494,15328,0.074,551
2019-10-29T05:30:54,42.805,6.029,CST-1368DR,7489,10494,15331,0.074,551
2019-10-29T05:33:55,42.805,6.029,CST-1368DR,7489,10494,15330,0.074,551
2019-10-29T05:36:57,42.805,6.029,CST-1368DR,7489,10495,15332,0.073,551
2019-10-29T05:39:59,42.805,6.029,CST-1368DR,7489,10495,15332,0.073,551
2019-10-29T05:43:00,42.805,6.029,CST-1368DR,7489,10495,15332,0.073,551
2019-10-29T05:46:02,42.805,6.029,CST-1368DR,7489,10494,15331,0.074,551
2019-10-29T05:49:04,42.805,6.029,CST-1368DR,7489,10495,15331,0.074,551
2019-10-29T05:52:05,42.805,6.029,CST-1368DR,7489,10494,15330,0.074,551
2019-10-29T05:55:07,42.805,6.029,CST-1368DR,7489,10494,15331,0.074,551
2019-10-29T05:58:09,42.805,6.029,CST-1368DR,7489,10494,15330,0.074,551
2019-10-29T06:01:10,42.805,6.029,CST-1368DR,7489,10493,15329,0.074,551
2019-10-29T06:04:12,42.805,6.029,CST-1368DR,7489,10494,15331,0.074,551
2019-10-29T06:07:14,42.805,6.029,CST-1368DR,7489,10495,15332,0.073,551
2019-10-29T06:10:15,42.805,6.029,CST-1368DR,7489,10495,15332,0.073,551
2019-10-29T06:13:17,42.805,6.029,CST-1368DR,7489,10495,15331,0.074,551
2019-10-29T06:16:19,42.805,6.029,CST-1368DR,7489,10493,15328,0.074,551
2019-10-29T06:19:20,42.805,6.029,CST-1368DR,7489,10494,15331,0.074,551
2019-10-29T06:22:22,42.805,6.029,CST-1368DR,7489,10494,15331,0.074,551
2019-10-29T06:25:23,42.805,6.029,CST-1368DR,7489,10493,15329,0.074,551
2019-10-29T06:28:25,42.805,6.029,CST-1368DR,7489,10495,15331,0.074,551
2019-10-29T06:31:27,42.805,6.029,CST-1368DR,7489,10495,15332,0.073,551
2019-10-29T06:34:28,42.805,6.029,CST-1368DR,7489,10494,15330,0.074,551
2019-10-29T06:37:30,42.805,6.029,CST-1368DR,7489,10492,15327,0.075,551
2019-10-29T06:40:32,42.805,6.029,CST-1368DR,7489,10494,15330,0.074,551
2019-10-29T06:43:33,42.805,6.029,CST-1368DR,7489,10494,15331,0.074,551
2019-10-29T06:46:35,42.805,6.029,CST-1368DR,7489,10494,15331,0.074,551
2019-10-29T06:49:37,42.805,6.029,CST-1368DR,7489,10494,15331,0.074,551
2019-10-29T06:52:38,42.805,6.029,CST-1368DR,7489,10494,15330,0.074,551
2019-10-29T06:55:40,42.805,6.029,CST-1368DR,7489,10495,15332,0.073,551
2019-10-29T06:58:42,42.805,6.029,CST-1368DR,7489,10493,15329,0.074,551
2019-10-29T07:01:43,42.805,6.029,CST-1368DR,7489,10495,15331,0.074,550
2019-10-29T07:04:45,42.805,6.029,CST-1368DR,7489,10495,15331,0.074,551
2019-10-29T07:07:47,42.805,6.029,CST-1368DR,7489,10493,15329,0.074,551
2019-10-29T07:10:48,42.805,6.029,CST-1368DR,7489,10494,15330,0.074,551
2019-10-29T07:13:50,42.805,6.029,CST-1368DR,7489,10492,15327,0.075,550
2019-10-29T07:16:52,42.805,6.029,CST-1368DR,7489,10493,15329,0.074,551
2019-10-29T07:19:53,42.805,6.029,CST-1368DR,7489,10493,15329,0.074,551
2019-10-29T07:22:55,42.805,6.029,CST-1368DR,7489,10493,15329,0.074,551
2019-10-29T07:25:57,42.805,6.029,CST-1368DR,7489,10494,15331,0.074,551
2019-10-29T07:28:58,42.805,6.029,CST-1368DR,7489,10493,15328,0.074,551
2019-10-29T07:32:00,42.805,6.029,CST-1368DR,7489,10491,15326,0.075,551
2019-10-29T07:35:02,42.805,6.029,CST-1368DR,7489,10493,15329,0.074,551
2019-10-29T07:38:03,42.805,6.029,CST-1368DR,7489,10493,15329,0.074,551
2019-10-29T07:41:05,42.805,6.029,CST-1368DR,7489,10492,15327,0.075,551
2019-10-29T07:44:06,42.805,6.029,CST-1368DR,7489,10494,15330,0.074,551
2019-10-29T07:47:08,42.805,6.029,CST-1368DR,7489,10494,15330,0.074,551
2019-10-29T07:50:10,42.805,6.029,CST-1368DR,7489,10494,15330,0.074,551
2019-10-29T07:53:11,42.805,6.029,CST-1368DR,7489,10493,15329,0.074,551
2019-10-29T07:56:13,42.805,6.029,CST-1368DR,7489,10493,15329,0.074,551
2019-10-29T07:59:15,42.805,6.029,CST-1368DR,7489,10491,15325,0.075,551
2019-10-29T08:02:16,42.805,6.029,CST-1368DR,7488,10494,15333,0.073,551
2019-10-29T08:05:18,42.805,6.029,CST-1368DR,7488,10494,15332,0.073,551
2019-10-29T08:08:20,42.805,6.029,CST-1368DR,7489,10494,15330,0.074,551
2019-10-29T08:11:21,42.805,6.029,CST-1368DR,7488,10495,15333,0.073,551
2019-10-29T08:14:23,42.805,6.029,CST-1368DR,7488,10494,15332,0.073,551
2019-10-29T08:17:25,42.805,6.029,CST-1368DR,7488,10493,15330,0.074,551
2019-10-29T08:20:26,42.805,6.029,CST-1368DR,7488,10492,15329,0.074,551
2019-10-29T08:23:28,42.805,6.029,CST-1368DR,7488,10491,15328,0.074,551
2019-10-29T08:26:30,42.805,6.029,CST-1368DR,7488,10492,15330,0.074,551
2019-10-29T08:29:31,42.805,6.029,CST-1368DR,7488,10492,15329,0.074,551
2019-10-29T08:32:33,42.805,6.029,CST-1368DR,7488,10492,15329,0.074,551
2019-10-29T08:35:34,42.805,6.029,CST-1368DR,7488,10493,15331,0.074,551
2019-10-29T08:38:36,42.805,6.029,CST-1368DR,7488,10493,15331,0.074,551
2019-10-29T08:41:38,42.805,6.029,CST-1368DR,7488,10489,15326,0.075,551
2019-10-29T08:44:39,42.805,6.029,CST-1368DR,7488,10494,15332,0.073,551
2019-10-29T08:47:41,42.805,6.029,CST-1368DR,7488,10493,15331,0.074,551
2019-10-29T08:50:43,42.805,6.029,CST-1368DR,7488,10493,15331,0.074,551
2019-10-29T08:53:44,42.805,6.029,CST-1368DR,7488,10492,15329,0.074,551
2019-10-29T08:56:46,42.805,6.029,CST-1368DR,7488,10492,15330,0.074,551
2019-10-29T08:59:48,42.805,6.029,CST-1368DR,7488,10493,15331,0.074,551
2019-10-29T09:02:49,42.805,6.029,CST-1368DR,7488,10493,15331,0.074,551
2019-10-29T09:05:51,42.805,6.029,CST-1368DR,7488,10493,15331,0.074,551
2019-10-29T09:08:53,42.805,6.029,CST-1368DR,7488,10494,15332,0.073,551
2019-10-29T09:11:54,42.805,6.029,CST-1368DR,7488,10493,15330,0.074,551
2019-10-29T09:14:56,42.805,6.029,CST-1368DR,7488,10493,15331,0.074,551
2019-10-29T09:17:58,42.805,6.029,CST-1368DR,7488,10493,15331,0.074,551
2019-10-29T09:20:59,42.805,6.029,CST-1368DR,7488,10494,15332,0.073,551
2019-10-29T09:24:01,42.805,6.029,CST-1368DR,7488,10492,15330,0.074,550
2019-10-29T09:27:03,42.805,6.029,CST-1368DR,7488,10494,15332,0.073,551
2019-10-29T09:30:04,42.805,6.029,CST-1368DR,7488,10494,15332,0.073,551
2019-10-29T09:33:06,42.805,6.029,CST-1368DR,7488,10493,15331,0.074,551
2019-10-29T09:36:08,42.805,6.029,CST-1368DR,7488,10493,15331,0.074,551
2019-10-29T09:39:09,42.805,6.029,CST-1368DR,7488,10493,15331,0.074,550
2019-10-29T09:42:11,42.805,6.029,CST-1368DR,7488,10493,15330,0.074,551
2019-10-29T09:45:13,42.805,6.029,CST-1368DR,7488,10494,15332,0.073,551
2019-10-29T09:48:14,42.805,6.029,CST-1368DR,7488,10494,15332,0.073,551
2019-10-29T09:51:16,42.805,6.029,CST-1368DR,7488,10493,15331,0.074,551
2019-10-29T09:54:18,42.805,6.029,CST-1368DR,7488,10494,15332,0.073,551
2019-10-29T09:57:19,42.805,6.029,CST-1368DR,7488,10494,15332,0.073,551
2019-10-29T10:00:21,42.805,6.029,CST-1368DR,7488,10493,15330,0.074,551
2019-10-29T10:03:23,42.805,6.029,CST-1368DR,7488,10493,15330,0.074,551
2019-10-29T10:06:24,42.805,6.029,CST-1368DR,7488,10493,15331,0.074,551
2019-10-29T10:09:26,42.805,6.029,CST-1368DR,7488,10493,15331,0.074,551
2019-10-29T10:12:28,42.805,6.029,CST-1368DR,7488,10492,15329,0.074,551
2019-10-29T10:15:29,42.805,6.029,CST-1368DR,7488,10493,15330,0.074,551
2019-10-29T10:18:31,42.805,6.029,CST-1368DR,7488,10494,15332,0.073,551
2019-10-29T10:21:33,42.805,6.029,CST-1368DR,7488,10493,15331,0.074,551
2019-10-29T10:24:34,42.805,6.029,CST-1368DR,7488,10494,15332,0.073,551
2019-10-29T10:27:36,42.805,6.029,CST-1368DR,7488,10493,15331,0.074,551
2019-10-29T10:30:37,42.805,6.029,CST-1368DR,7488,10493,15331,0.074,551
2019-10-29T10:33:39,42.805,6.029,CST-1368DR,7488,10491,15328,0.074,551
2019-10-29T10:36:41,42.805,6.029,CST-1368DR,7488,10493,15331,0.074,551
2019-10-29T10:39:42,42.805,6.029,CST-1368DR,7488,10493,15331,0.074,551
2019-10-29T10:42:44,42.805,6.029,CST-1368DR,7488,10492,15330,0.074,551
2019-10-29T10:45:46,42.805,6.029,CST-1368DR,7488,10492,15329,0.074,550
2019-10-29T10:48:47,42.805,6.029,CST-1368DR,7488,10493,15330,0.074,551
2019-10-29T10:51:49,42.805,6.029,CST-1368DR,7488,10494,15332,0.073,551
2019-10-29T10:54:51,42.805,6.029,CST-1368DR,7488,10492,15329,0.074,551
2019-10-29T10:57:52,42.805,6.029,CST-1368DR,7488,10493,15331,0.074,551
2019-10-29T11:00:54,42.805,6.029,CST-1368DR,7488,10490,15327,0.075,551
2019-10-29T11:03:55,42.805,6.029,CST-1368DR,7488,10493,15331,0.074,551
2019-10-29T11:06:57,42.805,6.029,CST-1368DR,7488,10493,15331,0.074,551
2019-10-29T11:09:59,42.805,6.029,CST-1368DR,7488,10493,15331,0.074,551
2019-10-29T11:13:00,42.805,6.029,CST-1368DR,7488,10493,15331,0.074,551
2019-10-29T11:16:02,42.805,6.029,CST-1368DR,7488,10491,15328,0.074,550
2019-10-29T11:19:04,42.805,6.029,CST-1368DR,7488,10490,15327,0.075,551
2019-10-29T11:22:05,42.805,6.029,CST-1368DR,7488,10493,15330,0.074,551
2019-10-29T11:25:07,42.805,6.029,CST-1368DR,7488,10492,15330,0.074,551
2019-10-29T11:28:09,42.805,6.029,CST-1368DR,7488,10491,15328,0.074,551
2019-10-29T11:31:10,42.805,6.029,CST-1368DR,7488,10492,15329,0.074,551
2019-10-29T11:34:12,42.805,6.029,CST-1368DR,7487,10490,15329,0.074,550
2019-10-29T11:37:13,42.805,6.029,CST-1368DR,7488,10493,15331,0.074,551
2019-10-29T11:40:15,42.805,6.029,CST-1368DR,7487,10493,15332,0.073,551
2019-10-29T11:43:17,42.805,6.029,CST-1368DR,7487,10493,15332,0.073,550
2019-10-29T11:46:18,42.805,6.029,CST-1368DR,7487,10493,15333,0.073,551
2019-10-29T11:49:20,42.805,6.029,CST-1368DR,7487,10491,15330,0.074,551
2019-10-29T11:52:22,42.805,6.029,CST-1368DR,7487,10492,15331,0.074,551
2019-10-29T11:55:24,42.805,6.029,CST-1368DR,7487,10492,15331,0.074,551
2019-10-29T11:58:25,42.805,6.029,CST-1368DR,7487,10493,15333,0.073,551
2019-10-29T12:01:27,42.805,6.029,CST-1368DR,7487,10492,15331,0.074,551
2019-10-29T12:04:29,42.805,6.029,CST-1368DR,7487,10492,15331,0.074,551
2019-10-29T12:07:30,42.805,6.029,CST-1368DR,7487,10491,15330,0.074,551
2019-10-29T12:10:32,42.805,6.029,CST-1368DR,7487,10492,15331,0.074,551
2019-10-29T12:13:34,42.805,6.029,CST-1368DR,7487,10492,15331,0.074,551
2019-10-29T12:16:35,42.805,6.029,CST-1368DR,7487,10493,15332,0.073,550
2019-10-29T12:19:37,42.805,6.029,CST-1368DR,7487,10491,15330,0.074,551
2019-10-29T12:22:39,42.805,6.029,CST-1368DR,7487,10491,15330,0.074,551
2019-10-29T12:25:40,42.805,6.029,CST-1368DR,7487,10493,15333,0.073,551
2019-10-29T12:28:42,42.805,6.029,CST-1368DR,7487,10492,15331,0.074,551
2019-10-29T12:31:44,42.805,6.029,CST-1368DR,7487,10492,15331,0.074,551
2019-10-29T12:34:45,42.805,6.029,CST-1368DR,7487,10491,15330,0.074,551
2019-10-29T12:37:47,42.805,6.029,CST-1368DR,7487,10491,15330,0.074,551
2019-10-29T12:40:49,42.805,6.029,CST-1368DR,7487,10492,15331,0.074,551
2019-10-29T12:43:50,42.805,6.029,CST-1368DR,7487,10491,15330,0.074,551
2019-10-29T12:46:52,42.805,6.029,CST-1368DR,7487,10492,15331,0.074,551
2019-10-29T12:49:53,42.805,6.029,CST-1368DR,7487,10491,15330,0.074,551
2019-10-29T12:52:55,42.805,6.029,CST-1368DR,7487,10490,15328,0.074,551
2019-10-29T12:55:57,42.805,6.029,CST-1368DR,7487,10492,15331,0.074,551
2019-10-29T12:58:58,42.805,6.029,CST-1368DR,7487,10492,15331,0.074,551
2019-10-29T13:02:00,42.805,6.029,CST-1368DR,7487,10491,15330,0.074,551
2019-10-29T13:05:01,42.805,6.029,CST-1368DR,7487,10491,15330,0.074,550
2019-10-29T13:08:03,42.805,6.029,CST-1368DR,7487,10492,15331,0.074,551
2019-10-29T13:11:05,42.805,6.029,CST-1368DR,7487,10491,15330,0.074,551
2019-10-29T13:14:06,42.805,6.029,CST-1368DR,7487,10491,15329,0.074,551
2019-10-29T13:17:08,42.805,6.029,CST-1368DR,7487,10491,15330,0.074,551
2019-10-29T13:20:10,42.805,6.029,CST-1368DR,7487,10491,15330,0.074,551
2019-10-29T13:23:11,42.805,6.029,CST-1368DR,7487,10490,15328,0.074,550
2019-10-29T13:26:13,42.805,6.029,CST-1368DR,7487,10491,15330,0.074,550
2019-10-29T13:29:14,42.805,6.029,CST-1368DR,7487,10490,15329,0.074,551
2019-10-29T13:32:16,42.805,6.029,CST-1368DR,7487,10491,15330,0.074,551
2019-10-29T13:35:18,42.805,6.029,CST-1368DR,7487,10490,15328,0.074,551
2019-10-29T13:38:19,42.805,6.029,CST-1368DR,7487,10491,15329,0.074,551
2019-10-29T13:41:21,42.805,6.029,CST-1368DR,7487,10491,15329,0.074,550
2019-10-29T13:44:23,42.805,6.029,CST-1368DR,7487,10492,15331,0.074,551
2019-10-29T13:47:24,42.805,6.029,CST-1368DR,7487,10492,15331,0.074,551
2019-10-29T13:50:26,42.805,6.029,CST-1368DR,7487,10492,15331,0.074,551
2019-10-29T13:53:27,42.805,6.029,CST-1368DR,7487,10491,15329,0.074,551
2019-10-29T13:56:29,42.805,6.029,CST-1368DR,7487,10490,15329,0.074,551
2019-10-29T13:59:31,42.805,6.029,CST-1368DR,7487,10490,15329,0.074,551
2019-10-29T14:02:32,42.805,6.029,CST-1368DR,7487,10491,15329,0.074,551
2019-10-29T14:05:34,42.805,6.029,CST-1368DR,7487,10491,15329,0.074,551
2019-10-29T14:08:36,42.805,6.029,CST-1368DR,7487,10491,15330,0.074,551
2019-10-29T14:11:38,42.805,6.029,CST-1368DR,7487,10491,15330,0.074,551
2019-10-29T14:14:39,42.805,6.029,CST-1368DR,7487,10488,15326,0.075,551
2019-10-29T14:17:41,42.805,6.029,CST-1368DR,7487,10491,15329,0.074,551
2019-10-29T14:20:42,42.805,6.029,CST-1368DR,7487,10491,15329,0.074,551
2019-10-29T14:23:44,42.805,6.029,CST-1368DR,7487,10491,15330,0.074,551
2019-10-29T14:26:46,42.805,6.029,CST-1368DR,7487,10492,15331,0.074,551
2019-10-29T14:29:47,42.805,6.029,CST-1368DR,7486,10488,15327,0.075,551
2019-10-29T14:32:49,42.805,6.029,CST-1368DR,7487,10492,15331,0.074,551
2019-10-29T14:35:51,42.805,6.029,CST-1368DR,7487,10491,15330,0.074,551
2019-10-29T14:38:52,42.805,6.029,CST-1368DR,7487,10491,15330,0.074,551
2019-10-29T14:41:54,42.805,6.029,CST-1368DR,7486,10491,15332,0.073,551
2019-10-29T14:44:56,42.805,6.029,CST-1368DR,7487,10491,15330,0.074,551
2019-10-29T14:47:57,42.805,6.029,CST-1368DR,7486,10491,15331,0.074,551
2019-10-29T14:50:59,42.805,6.029,CST-1368DR,7486,10490,15330,0.074,551
2019-10-29T14:54:01,42.805,6.029,CST-1368DR,7486,10491,15332,0.073,551
2019-10-29T14:57:02,42.805,6.029,CST-1368DR,7486,10491,15332,0.073,551
2019-10-29T15:00:04,42.805,6.029,CST-1368DR,7486,10491,15332,0.073,551
2019-10-29T15:03:06,42.805,6.029,CST-1368DR,7486,10490,15331,0.074,551
2019-10-29T15:06:07,42.805,6.029,CST-1368DR,7486,10491,15332,0.073,551
2019-10-29T15:09:09,42.805,6.029,CST-1368DR,7486,10491,15332,0.073,551
2019-10-29T15:12:10,42.805,6.029,CST-1368DR,7486,10490,15330,0.074,551
2019-10-29T15:15:12,42.805,6.029,CST-1368DR,7486,10491,15331,0.074,551
2019-10-29T15:18:14,42.805,6.029,CST-1368DR,7486,10491,15331,0.074,551
2019-10-29T15:21:15,42.805,6.029,CST-1368DR,7486,10491,15331,0.074,551
2019-10-29T15:24:17,42.805,6.029,CST-1368DR,7486,10490,15331,0.074,551
2019-10-29T15:27:19,42.805,6.029,CST-1368DR,7486,10490,15330,0.074,551
2019-10-29T15:30:20,42.805,6.029,CST-1368DR,7486,10489,15329,0.074,551
2019-10-29T15:33:22,42.805,6.029,CST-1368DR,7486,10490,15330,0.074,551
2019-10-29T15:36:24,42.805,6.029,CST-1368DR,7486,10491,15331,0.074,551
2019-10-29T15:39:25,42.805,6.029,CST-1368DR,7486,10491,15331,0.074,551
2019-10-29T15:42:27,42.805,6.029,CST-1368DR,7486,10490,15331,0.074,551
2019-10-29T15:45:28,42.805,6.029,CST-1368DR,7486,10488,15328,0.074,551
2019-10-29T15:48:30,42.805,6.029,CST-1368DR,7486,10490,15330,0.074,551
2019-10-29T15:51:32,42.805,6.029,CST-1368DR,7486,10491,15331,0.074,551
2019-10-29T15:54:33,42.805,6.029,CST-1368DR,7486,10491,15332,0.073,551
2019-10-29T15:57:35,42.805,6.029,CST-1368DR,7486,10490,15330,0.074,551
2019-10-29T16:00:37,42.805,6.029,CST-1368DR,7486,10491,15332,0.073,551
2019-10-29T16:03:38,42.805,6.029,CST-1368DR,7486,10490,15331,0.074,551
2019-10-29T16:06:40,42.805,6.029,CST-1368DR,7486,10490,15330,0.074,551
2019-10-29T16:09:42,42.805,6.029,CST-1368DR,7486,10491,15331,0.074,551
2019-10-29T16:12:43,42.805,6.029,CST-1368DR,7486,10488,15328,0.074,551
2019-10-29T16:15:45,42.805,6.029,CST-1368DR,7486,10490,15330,0.074,551
2019-10-29T16:18:47,42.805,6.029,CST-1368DR,7486,10490,15330,0.074,551
2019-10-29T16:21:48,42.805,6.029,CST-1368DR,7486,10489,15329,0.074,551
2019-10-29T16:24:50,42.805,6.029,CST-1368DR,7486,10489,15329,0.074,551
2019-10-29T16:27:51,42.805,6.029,CST-1368DR,7486,10487,15326,0.075,550
2019-10-29T16:30:53,42.805,6.029,CST-1368DR,7486,10490,15330,0.074,550
2019-10-29T16:33:55,42.805,6.029,CST-1368DR,7486,10490,15330,0.074,551
2019-10-29T16:36:56,42.805,6.029,CST-1368DR,7486,10490,15330,0.074,551